EW3302 Weather Reports


Display with metric or nautical units.
time (UTC)temp
F
wind
direction
speed
MPH
gust
MPH
rain 1hr
in
rain 24hr
in
rain mn
in
humidity
%
barometer
mb
20260904023517 41 0 1.0 2.0 0.00 0.00 0.00 93 1000.7
20260904022516 41 0 2.0 3.0 0.00 0.00 0.00 94 1000.7
20260904021516 41 0 1.0 2.0 0.00 0.00 0.00 94 1000.8
20260904020536 41 315 3.0 5.0 0.00 0.00 0.00 94 1000.7
20260904015517 41 315 2.0 5.0 0.00 0.00 0.00 94 1000.8
20260904014516 41 293 2.0 3.0 0.00 0.00 0.00 94 1000.9
20260904013516 41 315 3.0 4.0 0.00 0.00 0.00 94 1001.0
20260904012517 41 293 2.0 4.0 0.00 0.00 0.00 94 1001.0
20260904011517 41 315 1.0 3.0 0.00 0.00 0.00 93 1001.1
20260904010517 41 293 1.0 2.0 0.00 0.00 0.00 93 1001.2
20260904005516 41 293 1.0 2.0 0.00 0.00 0.00 93 1001.3
20260904004537 41 0.0 1.0 0.00 0.00 0.00 93 1001.4
20260904003516 42 0.0 1.0 0.00 0.00 0.00 93 1001.5
20260904002516 42 293 1.0 1.0 0.00 0.00 0.00 92 1001.6
20260904001516 42 0.0 1.0 0.00 0.00 0.00 93 1001.6
20260904000516 42 293 1.0 2.0 0.00 0.00 0.00 93 1001.7
20260903235516 42 270 2.0 3.0 0.00 0.00 0.00 92 1001.7
20260903234556 43 338 1.0 2.0 0.00 0.00 0.00 92 1001.8
20260903233516 43 0.0 2.0 0.00 0.00 0.00 92 1001.8
20260903232516 43 0.0 1.0 0.00 0.00 0.00 92 1001.8
20260903231516 43 0.0 0.0 0.00 0.00 0.00 91 1001.9
20260903230516 44 0.0 0.0 0.00 0.00 0.00 91 1001.9
20260903225537 44 0.0 1.0 0.00 0.00 0.00 91 1001.9
20260903224516 44 0.0 2.0 0.00 0.00 0.00 90 1002.0
20260903223516 44 0.0 1.0 0.00 0.00 0.00 90 1001.8
20260903222516 45 0.0 1.0 0.00 0.00 0.00 90 1002.0
20260903221516 45 0.0 0.0 0.00 0.00 0.00 90 1002.1
20260903220516 46 338 1.0 1.0 0.00 0.00 0.00 89 1002.1
20260903215515 46 0.0 1.0 0.00 0.00 0.00 89 1002.1
20260903214516 46 0.0 1.0 0.00 0.00 0.00 89 1002.2
20260903213516 46 338 1.0 2.0 0.00 0.00 0.00 89 1002.2
20260903212515 47 338 1.0 2.0 0.00 0.00 0.00 88 1002.2
20260903211516 47 338 2.0 3.0 0.00 0.00 0.00 87 1002.2
20260903210515 47 0.0 2.0 0.00 0.00 0.00 87 1002.2
20260903205516 47 0.0 1.0 0.00 0.00 0.00 88 1002.2
20260903204516 47 338 1.0 2.0 0.00 0.00 0.00 88 1002.2
20260903203515 47 338 1.0 2.0 0.00 0.00 0.00 88 1002.1
20260903202516 47 0.0 1.0 0.00 0.00 0.00 87 1002.2
20260903201516 47 338 1.0 2.0 0.00 0.00 0.00 86 1002.2
20260903200516 48 338 1.0 3.0 0.00 0.00 0.00 86 1002.3
20260903195535 48 0.0 0.0 0.00 0.00 0.00 85 1002.2
20260903194516 48 338 1.0 2.0 0.00 0.00 0.00 83 1002.3
20260903193517 49 338 1.0 2.0 0.00 0.00 0.00 83 1002.4
20260903192515 49 0.0 1.0 0.00 0.00 0.00 82 1002.5
20260903191516 50 0.0 1.0 0.00 0.00 0.00 80 1002.4
20260903190515 51 338 1.0 2.0 0.00 0.00 0.00 79 1002.5
20260903185516 51 338 1.0 2.0 0.00 0.00 0.00 78 1002.5
20260903184515 52 270 2.0 3.0 0.00 0.00 0.00 76 1002.6
20260903183516 53 0.0 1.0 0.00 0.00 0.00 74 1002.5
20260903182516 54 203 1.0 1.0 0.00 0.00 0.00 72 1002.7
20260903181535 55 225 2.0 3.0 0.00 0.00 0.00 71 1002.7
20260903180515 56 0.0 1.0 0.00 0.00 0.00 68 1002.6
20260903175515 57 315 1.0 2.0 0.00 0.00 0.00 65 1002.6
20260903174516 58 315 2.0 3.0 0.00 0.00 0.00 62 1002.7
20260903173516 59 293 2.0 4.0 0.00 0.00 0.00 59 1002.6
20260903172515 60 315 3.0 6.0 0.00 0.00 0.00 57 1002.8
20260903171515 61 225 2.0 5.0 0.00 0.00 0.00 56 1002.7
20260903170515 61 248 2.0 6.0 0.00 0.00 0.00 54 1002.6
20260903165515 62 248 3.0 7.0 0.00 0.00 0.00 50 1002.7
20260903164515 63 248 3.0 9.0 0.00 0.00 0.00 49 1002.6
20260903163515 63 270 3.0 7.0 0.00 0.00 0.00 49 1002.6
20260903162515 64 270 4.0 8.0 0.00 0.00 0.00 47 1002.7
20260903161516 64 270 5.0 9.0 0.00 0.00 0.00 47 1002.7
20260903160516 64 270 4.0 10.0 0.00 0.00 0.00 47 1002.7
20260903155515 64 248 6.0 11.0 0.00 0.00 0.00 45 1002.8
20260903154515 64 248 3.0 6.0 0.00 0.00 0.00 47 1002.8
20260903153516 64 225 5.0 11.0 0.00 0.00 0.00 45 1002.8
20260903152556 64 225 4.0 10.0 0.00 0.00 0.00 48 1002.8
20260903151515 64 270 5.0 10.0 0.00 0.00 0.00 49 1003.0
20260903150515 64 248 2.0 6.0 0.00 0.00 0.00 50 1002.9
20260903145515 63 270 3.0 5.0 0.00 0.00 0.00 50 1003.0
20260903144516 63 270 2.0 7.0 0.00 0.00 0.00 52 1003.0
20260903143516 64 270 5.0 12.0 0.00 0.00 0.00 47 1003.1
20260903142515 64 203 5.0 10.0 0.00 0.00 0.00 45 1003.1
20260903141535 65 248 5.0 10.0 0.00 0.00 0.00 44 1003.1
20260903140517 65 270 5.0 10.0 0.00 0.00 0.00 48 1003.1
20260903135517 65 203 6.0 12.0 0.00 0.00 0.00 46 1003.1
20260903134517 64 270 5.0 12.0 0.00 0.00 0.00 44 1003.1
20260903133517 64 248 4.0 8.0 0.00 0.00 0.00 47 1003.2
20260903132517 64 270 4.0 7.0 0.00 0.00 0.00 49 1003.2
20260903131517 64 248 6.0 12.0 0.00 0.00 0.00 46 1003.3
20260903130518 64 248 5.0 11.0 0.00 0.00 0.00 46 1003.4
20260903125517 65 0 6.0 10.0 0.00 0.00 0.00 45 1003.3
20260903124517 65 248 3.0 8.0 0.00 0.00 0.00 49 1003.3
20260903123517 65 248 2.0 6.0 0.00 0.00 0.00 48 1003.4
20260903122517 65 248 3.0 10.0 0.00 0.00 0.00 47 1003.4
20260903121637 65 248 5.0 9.0 0.00 0.00 0.00 46 1003.5
20260903120517 65 248 5.0 12.0 0.00 0.00 0.00 47 1003.6
20260903115517 65 270 5.0 15.0 0.00 0.00 0.00 45 1003.5
20260903114517 64 270 6.0 15.0 0.00 0.00 0.00 50 1003.6
20260903113537 64 270 6.0 12.0 0.00 0.00 0.00 47 1003.6
20260903112517 64 248 6.0 11.0 0.00 0.00 0.00 48 1003.7
20260903111517 65 270 3.0 7.0 0.00 0.00 0.00 52 1003.8
20260903110517 64 248 5.0 13.0 0.00 0.00 0.00 50 1003.9
20260903105517 63 248 6.0 10.0 0.00 0.00 0.00 50 1003.9
20260903104517 62 248 6.0 12.0 0.00 0.00 0.00 50 1003.9
20260903103517 62 270 7.0 13.0 0.00 0.00 0.00 52 1004.0
20260903102517 61 225 3.0 6.0 0.00 0.00 0.00 56 1003.9
20260903101537 61 270 6.0 12.0 0.00 0.00 0.00 55 1004.0
20260903100537 61 270 6.0 11.0 0.00 0.00 0.00 54 1004.0
20260903095517 60 270 3.0 8.0 0.00 0.00 0.00 57 1003.9
20260903094517 60 270 6.0 11.0 0.00 0.00 0.00 55 1003.9
20260903093517 60 225 4.0 10.0 0.00 0.00 0.00 58 1003.9
20260903092517 60 248 3.0 7.0 0.00 0.00 0.00 59 1003.8
20260903091517 59 270 5.0 10.0 0.00 0.00 0.00 58 1003.9
20260903090517 59 270 4.0 9.0 0.00 0.00 0.00 60 1003.8
20260903085517 58 248 4.0 9.0 0.00 0.00 0.00 62 1003.9
20260903084517 57 270 4.0 7.0 0.00 0.00 0.00 65 1003.9
20260903083517 57 248 4.0 8.0 0.00 0.00 0.00 66 1004.0
20260903082517 56 270 4.0 8.0 0.00 0.00 0.00 66 1004.0
20260903081517 56 270 4.0 9.0 0.00 0.00 0.00 67 1003.9
20260903080537 55 270 4.0 7.0 0.00 0.00 0.00 67 1003.9
20260903075517 55 270 3.0 8.0 0.00 0.00 0.00 68 1003.9
20260903074517 55 270 5.0 10.0 0.00 0.00 0.00 68 1003.8
20260903073557 55 270 3.0 7.0 0.00 0.00 0.00 69 1003.8
20260903072517 54 248 4.0 8.0 0.00 0.00 0.00 70 1003.9
20260903071517 54 270 5.0 11.0 0.00 0.00 0.00 70 1003.8
20260903070517 54 270 6.0 12.0 0.00 0.00 0.00 69 1003.9
20260903065517 54 248 3.0 8.0 0.00 0.00 0.00 72 1003.9
20260903064537 53 225 5.0 12.0 0.00 0.00 0.00 73 1003.9
20260903063517 53 248 2.0 5.0 0.00 0.00 0.00 78 1004.0
20260903062537 53 270 2.0 6.0 0.00 0.00 0.00 78 1003.9
20260903061517 53 180 1.0 4.0 0.00 0.00 0.00 82 1003.9
20260903060517 51 180 3.0 4.0 0.00 0.00 0.00 84 1003.9
20260903055518 50 180 3.0 5.0 0.00 0.00 0.00 86 1003.8
20260903054517 49 158 2.0 5.0 0.00 0.00 0.00 88 1003.8
20260903053537 49 180 3.0 4.0 0.00 0.00 0.00 89 1003.7
20260903052537 48 203 3.0 5.0 0.00 0.00 0.00 90 1003.8
20260903051518 48 203 5.0 7.0 0.00 0.00 0.00 91 1003.6
20260903050517 47 203 4.0 6.0 0.00 0.00 0.00 92 1003.8
20260903045537 47 180 3.0 5.0 0.00 0.00 0.00 93 1003.8
20260903044517 47 180 3.0 5.0 0.00 0.00 0.00 94 1003.8
20260903043517 46 180 4.0 6.0 0.00 0.00 0.00 95 1003.7
20260903042517 45 180 2.0 4.0 0.00 0.00 0.00 95 1003.8
20260903041517 44 315 2.0 3.0 0.00 0.00 0.00 94 1003.6
20260903040517 44 158 2.0 3.0 0.00 0.00 0.00 94 1003.6
20260903035517 44 203 1.0 3.0 0.00 0.00 0.00 93 1003.6
20260903034517 44 158 2.0 3.0 0.00 0.00 0.00 93 1003.7
20260903033517 44 180 2.0 3.0 0.00 0.00 0.00 92 1003.6
20260903032517 44 158 1.0 3.0 0.00 0.00 0.00 92 1003.7
20260903031557 45 0.0 1.0 0.00 0.00 0.00 92 1003.8
20260903030517 46 0.0 2.0 0.00 0.00 0.00 93 1003.8
20260903025537 46 203 3.0 4.0 0.00 0.00 0.00 93 1003.8
20260903024517 46 180 2.0 3.0 0.00 0.00 0.00 93 1003.8